Flag for U.S.A. Weather past 2 weeks in Visalia, California, U.S.A.

Now
75 °F

Clear.


Feels Like: 78 °F
Forecast: 69 / 99 °F
Wind: 6 mph from Northwest

Location: Visalia Municipal

Current Time: Sep 15, 2014 at 3:07:00 AM

Latest Report: Sep 15, 2014 at 2:35 AM


Visibility: 10 mi

Pressure: 29.80 "Hg

Humidity: 50%

Dew point: 55 °F

Location of VisaliaLocation

Historic Weather in Visalia — Graph

°F

Visalia temperature yesterday

Maximum temperature yesterday: 100 °F (at 3:55 PM)
Minimum temperature yesterday: 64 °F (at 6:55 AM)
Average temperature yesterday: 82 °F

Past Weeks' High & Low Weather Summary

 TemperatureHumidityPressure
High100 °F (Sep 2, 3:55 PM)77% (Sep 1, 6:15 AM)29.96 "Hg (Sep 1, 6:15 AM)
Low55 °F (Sep 9, 6:15 AM)16% (Sep 12, 5:55 PM)29.61 "Hg (Sep 3, 6:15 PM)
Average79 °F46%29.79 "Hg
* Reported Aug 31 1:15 AM — Sep 15 1:55 AM, Visalia, Weather by CustomWeather, © 2014

Note: Actual official high and low records may vary slightly from our data, if they occured in-between our weather recording intervals... More about our weather records

Advertising

Visalia weather history for previous 24 hours

 ConditionsComfort  
Time TempWeatherWind HumidityBarometerVisibility
1:55 AM
Sep 15
72 °FClear.No wind57%29.80 "Hg10 mi
1:35 AM77 °FClear.No wind47%29.80 "Hg10 mi
1:15 AM79 °FClear.6 mph45%29.80 "Hg10 mi
12:55 AM77 °FClear.5 mph51%29.79 "Hg10 mi
12:35 AM79 °FClear.3 mph48%29.79 "Hg10 mi
12:15 AM79 °FClear.3 mph48%29.78 "Hg10 mi
11:55 PM
Sep 14
79 °FClear.5 mph48%29.78 "Hg9 mi
11:35 PM81 °FClear.3 mph45%29.78 "Hg9 mi
10:55 PM81 °FClear.5 mph45%29.77 "Hg9 mi
10:35 PM81 °FClear.6 mph45%29.76 "Hg5 mi
10:15 PM82 °FClear.6 mph42%29.76 "Hg10 mi
9:55 PM84 °FClear.7 mph40%29.75 "Hg10 mi
9:35 PM84 °FClear.6 mph40%29.74 "Hg10 mi
9:15 PM84 °FClear.5 mph40%29.74 "Hg10 mi
8:55 PM86 °FClear.7 mph38%29.74 "Hg10 mi
8:35 PM84 °FClear.5 mph43%29.73 "Hg10 mi
8:15 PM88 °FClear.6 mph35%29.72 "Hg10 mi
7:55 PM88 °FSunny.5 mph35%29.72 "Hg10 mi
7:35 PM90 °FSunny.5 mph33%29.71 "Hg10 mi
7:15 PM91 °FSunny.6 mph32%29.71 "Hg10 mi
6:55 PM93 °FSunny.7 mph30%29.71 "Hg10 mi
6:35 PM99 °FSunny.7 mph19%29.71 "Hg10 mi
6:15 PM100 °FSunny.8 mph20%29.71 "Hg10 mi
5:55 PM100 °FSunny.7 mph21%29.71 "Hg10 mi
5:35 PM99 °FSunny.8 mph24%29.71 "Hg10 mi
4:55 PM100 °FSunny.3 mph22%29.71 "Hg10 mi
4:35 PM99 °FSunny.8 mph25%29.71 "Hg10 mi
4:15 PM99 °FSunny.7 mph25%29.71 "Hg10 mi
3:55 PM100 °FSunny.5 mph22%29.72 "Hg10 mi
3:35 PM99 °FSunny.8 mph25%29.73 "Hg10 mi
3:15 PM97 °FSunny.8 mph27%29.73 "Hg10 mi
2:55 PM99 °FSunny.8 mph25%29.74 "Hg10 mi
2:35 PM97 °FSunny.6 mph28%29.75 "Hg10 mi
2:15 PM95 °FSunny.3 mph32%29.75 "Hg10 mi
1:55 PM91 °FSunny.5 mph34%29.76 "Hg10 mi
1:35 PM91 °FSunny.6 mph36%29.77 "Hg10 mi
1:15 PM91 °FSunny.6 mph36%29.78 "Hg10 mi
12:55 PM91 °FSunny.5 mph38%29.79 "Hg10 mi
12:35 PM91 °FSunny.No wind38%29.78 "Hg10 mi
12:15 PM88 °FSunny.No wind40%29.80 "Hg10 mi
11:55 AM88 °FSunny.No wind40%29.81 "Hg10 mi
11:35 AM84 °FSunny.No wind45%29.82 "Hg10 mi
11:15 AM82 °FSunny.No wind48%29.82 "Hg10 mi
10:55 AM81 °FSunny.No wind51%29.83 "Hg10 mi
10:35 AM79 °FSunny.No wind54%29.83 "Hg10 mi
10:15 AM77 °FSunny.No wind57%29.83 "Hg9 mi
9:55 AM77 °FSunny.No wind54%29.83 "Hg7 mi
9:35 AM75 °FSunny.No wind57%29.83 "Hg10 mi
9:15 AM75 °FSunny.3 mph54%29.83 "Hg10 mi
8:55 AM73 °FSunny.No wind61%29.83 "Hg10 mi
8:35 AM72 °FSunny.No wind61%29.82 "Hg8 mi
8:15 AM70 °FSunny.5 mph64%29.81 "Hg9 mi
7:55 AM70 °FSunny.3 mph60%29.81 "Hg10 mi
7:35 AM68 °FClear.5 mph64%29.81 "Hg10 mi
7:15 AM66 °FClear.5 mph68%29.80 "Hg10 mi
6:55 AM64 °FClear.3 mph73%29.80 "Hg10 mi
6:35 AM66 °FClear.No wind68%29.79 "Hg10 mi
6:15 AM66 °FClear.5 mph68%29.78 "Hg10 mi
5:55 AM66 °FClear.6 mph68%29.78 "Hg10 mi
5:35 AM66 °FClear.6 mph68%29.78 "Hg10 mi
5:15 AM70 °FClear.5 mph64%29.77 "Hg10 mi
4:55 AM70 °FClear.3 mph64%29.77 "Hg10 mi
4:35 AM70 °FClear.No wind64%29.76 "Hg10 mi
4:15 AM70 °FClear.3 mph64%29.76 "Hg10 mi
3:55 AM70 °FClear.No wind64%29.76 "Hg10 mi
3:35 AM72 °FClear.3 mph61%29.75 "Hg10 mi
3:15 AM72 °FClear.3 mph61%29.75 "Hg10 mi
Weather by CustomWeather, © 2014

See weather overviewHow to use our weather pages